• în România
  • Lista ţărilor
  • Pe 7 zile
  • Temperatura apei
  • Hartă satelitară
  • Meteo pe hartă
  • Widget-uri
  • user-avatar
    Intrare

    Meteo pe oră la Fier

    Astăzi, 26 Martie, Duminică

    Timp Temperatura Precipitaţii Vânt Presiune Umiditate
    00:00 +13°C° 0 mm 1 m/s 762 mmHg 88%
    01:00 +12°C° 0 mm 1 m/s 762 mmHg 87%
    02:00 +12°C° 0 mm 1 m/s 761 mmHg 87%
    03:00 +12°C° 0 mm 1 m/s 761 mmHg 87%
    04:00 +12°C° 0 mm 1 m/s 761 mmHg 87%
    05:00 +13°C° 0 mm 1 m/s 761 mmHg 82%
    06:00 +15°C° 0 mm 1 m/s 761 mmHg 76%
    07:00 +16°C° 0 mm 2 m/s 760 mmHg 66%
    08:00 +18°C° 0 mm 2 m/s 760 mmHg 61%
    09:00 +19°C° 0 mm 3 m/s 760 mmHg 56%
    10:00 +20°C° 0 mm 3 m/s 759 mmHg 51%
    11:00 +21°C° 0 mm 3 m/s 759 mmHg 52%
    12:00 +21°C° 0 mm 4 m/s 759 mmHg 53%
    13:00 +21°C° 0 mm 4 m/s 758 mmHg 53%
    14:00 +20°C° 0 mm 4 m/s 758 mmHg 56%
    15:00 +19°C° 0 mm 5 m/s 758 mmHg 59%
    16:00 +19°C° 0 mm 5 m/s 758 mmHg 62%
    17:00 +17°C° 0,3 mm 4 m/s 758 mmHg 72%
    18:00 +14°C° 0,3 mm 4 m/s 759 mmHg 82%
    19:00 +13°C° 0,3 mm 4 m/s 759 mmHg 92%
    20:00 +12°C° 0,1 mm 3 m/s 759 mmHg 92%
    21:00 +12°C° 0,1 mm 3 m/s 760 mmHg 92%
    22:00 +11°C° 0,1 mm 3 m/s 760 mmHg 92%
    23:00 +11°C° 0,1 mm 3 m/s 760 mmHg 92%

    Mâine, 27 Martie, Luni

    Timp Temperatura Precipitaţii Vânt Presiune Umiditate
    00:00 +11°C° 0,1 mm 3 m/s 761 mmHg 91%
    01:00 +10°C° 0,1 mm 3 m/s 761 mmHg 90%
    02:00 +10°C° 0,2 mm 3 m/s 761 mmHg 88%
    03:00 +10°C° 0,2 mm 3 m/s 761 mmHg 87%
    04:00 +10°C° 0,2 mm 3 m/s 761 mmHg 85%
    05:00 +11°C° 0,3 mm 3 m/s 761 mmHg 82%
    06:00 +12°C° 0,3 mm 3 m/s 761 mmHg 79%
    07:00 +12°C° 0,3 mm 3 m/s 762 mmHg 76%
    08:00 +13°C° 0,7 mm 3 m/s 762 mmHg 69%
    09:00 +16°C° 0,7 mm 3 m/s 762 mmHg 62%
    10:00 +17°C° 0,7 mm 3 m/s 762 mmHg 56%
    11:00 +17°C° 0,4 mm 3 m/s 762 mmHg 55%
    12:00 +18°C° 0,4 mm 2 m/s 762 mmHg 54%
    13:00 +18°C° 0,4 mm 2 m/s 762 mmHg 54%
    14:00 +18°C° 0,4 mm 2 m/s 762 mmHg 57%
    15:00 +17°C° 0,4 mm 2 m/s 762 mmHg 59%
    16:00 +17°C° 0,4 mm 3 m/s 762 mmHg 62%
    17:00 +14°C° 0,2 mm 3 m/s 763 mmHg 67%
    18:00 +13°C° 0,2 mm 3 m/s 763 mmHg 72%
    19:00 +12°C° 0,2 mm 3 m/s 763 mmHg 77%
    20:00 +11°C° 0,1 mm 3 m/s 763 mmHg 78%
    21:00 +11°C° 0,1 mm 3 m/s 764 mmHg 78%
    22:00 +11°C° 0,1 mm 3 m/s 764 mmHg 78%
    23:00 +11°C° 0 mm 3 m/s 764 mmHg 79%

    Poimâine, 28 Martie, Marţi

    Timp Temperatura Precipitaţii Vânt Presiune Umiditate
    00:00 +10°C° 0 mm 3 m/s 764 mmHg 80%
    01:00 +10°C° 0 mm 3 m/s 765 mmHg 81%
    02:00 +10°C° 0 mm 3 m/s 764 mmHg 81%
    03:00 +9°C° 0 mm 3 m/s 764 mmHg 81%
    04:00 +9°C° 0 mm 3 m/s 764 mmHg 82%
    05:00 +10°C° 0 mm 3 m/s 764 mmHg 79%
    06:00 +10°C° 0 mm 3 m/s 764 mmHg 77%
    07:00 +11°C° 0 mm 3 m/s 765 mmHg 75%
    08:00 +13°C° 0 mm 3 m/s 765 mmHg 66%
    09:00 +15°C° 0 mm 2 m/s 765 mmHg 58%
    10:00 +17°C° 0 mm 2 m/s 765 mmHg 49%
    11:00 +18°C° 0 mm 3 m/s 765 mmHg 47%
    12:00 +19°C° 0 mm 3 m/s 764 mmHg 44%
    13:00 +20°C° 0 mm 4 m/s 764 mmHg 42%
    14:00 +19°C° 0 mm 4 m/s 764 mmHg 43%
    15:00 +19°C° 0 mm 5 m/s 763 mmHg 44%
    16:00 +17°C° 0 mm 5 m/s 763 mmHg 46%
    17:00 +15°C° 0 mm 5 m/s 764 mmHg 54%
    18:00 +13°C° 0 mm 5 m/s 764 mmHg 63%
    19:00 +11°C° 0 mm 4 m/s 764 mmHg 72%
    20:00 +11°C° 0 mm 4 m/s 765 mmHg 71%
    21:00 +11°C° 0 mm 4 m/s 765 mmHg 71%
    22:00 +11°C° 0 mm 3 m/s 765 mmHg 70%
    23:00 +10°C° 0 mm 3 m/s 765 mmHg 69%

    29 Martie, Miercuri

    Timp Temperatura Precipitaţii Vânt Presiune Umiditate
    00:00 +10°C° 0 mm 3 m/s 765 mmHg 68%
    01:00 +10°C° 0 mm 3 m/s 765 mmHg 67%
    02:00 +10°C° 0 mm 3 m/s 765 mmHg 66%
    03:00 +9°C° 0 mm 2 m/s 765 mmHg 65%
    04:00 +9°C° 0 mm 2 m/s 765 mmHg 65%
    05:00 +10°C° 0 mm 2 m/s 765 mmHg 62%
    06:00 +12°C° 0 mm 2 m/s 765 mmHg 60%
    07:00 +13°C° 0 mm 2 m/s 765 mmHg 58%
    08:00 +15°C° 0 mm 2 m/s 765 mmHg 51%
    09:00 +17°C° 0 mm 2 m/s 765 mmHg 44%
    10:00 +20°C° 0 mm 2 m/s 765 mmHg 36%
    11:00 +20°C° 0 mm 3 m/s 764 mmHg 35%
    12:00 +21°C° 0 mm 3 m/s 764 mmHg 34%
    13:00 +22°C° 0 mm 4 m/s 764 mmHg 32%
    14:00 +21°C° 0 mm 4 m/s 763 mmHg 35%
    15:00 +21°C° 0 mm 5 m/s 763 mmHg 39%
    16:00 +20°C° 0 mm 5 m/s 763 mmHg 42%
    17:00 +17°C° 0 mm 5 m/s 763 mmHg 52%
    18:00 +14°C° 0 mm 4 m/s 763 mmHg 63%
    19:00 +12°C° 0 mm 4 m/s 763 mmHg 73%
    20:00 +12°C° 0 mm 3 m/s 763 mmHg 74%
    21:00 +11°C° 0 mm 3 m/s 764 mmHg 74%
    22:00 +11°C° 0 mm 3 m/s 764 mmHg 74%
    23:00 +11°C° 0 mm 3 m/s 764 mmHg 73%

    30 Martie, Joi

    Timp Temperatura Precipitaţii Vânt Presiune Umiditate
    00:00 +10°C° 0 mm 3 m/s 764 mmHg 72%
    01:00 +10°C° 0 mm 3 m/s 764 mmHg 72%
    02:00 +10°C° 0 mm 3 m/s 764 mmHg 71%
    03:00 +10°C° 0 mm 3 m/s 764 mmHg 70%
    04:00 +10°C° 0 mm 3 m/s 763 mmHg 69%
    05:00 +11°C° 0 mm 3 m/s 764 mmHg 66%
    06:00 +12°C° 0 mm 3 m/s 764 mmHg 62%
    07:00 +14°C° 0 mm 3 m/s 764 mmHg 58%
    08:00 +17°C° 0 mm 3 m/s 764 mmHg 51%
    09:00 +19°C° 0 mm 4 m/s 764 mmHg 44%
    10:00 +21°C° 0 mm 4 m/s 764 mmHg 37%
    11:00 +21°C° 0 mm 4 m/s 763 mmHg 36%
    12:00 +22°C° 0 mm 5 m/s 763 mmHg 36%
    13:00 +23°C° 0 mm 5 m/s 762 mmHg 35%
    14:00 +22°C° 0,1 mm 6 m/s 762 mmHg 40%
    15:00 +21°C° 0,1 mm 6 m/s 762 mmHg 44%
    16:00 +21°C° 0,1 mm 7 m/s 762 mmHg 48%
    17:00 +19°C° 0 mm 6 m/s 762 mmHg 56%
    18:00 +16°C° 0 mm 5 m/s 763 mmHg 65%
    19:00 +14°C° 0 mm 5 m/s 763 mmHg 73%
    20:00 +13°C° 0 mm 4 m/s 764 mmHg 72%
    21:00 +13°C° 0 mm 4 m/s 764 mmHg 71%
    22:00 +13°C° 0 mm 4 m/s 764 mmHg 71%
    23:00 +12°C° 0 mm 4 m/s 764 mmHg 71%

    31 Martie, Vineri

    Timp Temperatura Precipitaţii Vânt Presiune Umiditate
    00:00 +12°C° 0 mm 4 m/s 764 mmHg 71%
    01:00 +11°C° 0 mm 4 m/s 764 mmHg 72%
    02:00 +11°C° 0 mm 4 m/s 764 mmHg 72%
    03:00 +11°C° 0 mm 4 m/s 764 mmHg 72%
    04:00 +10°C° 0 mm 4 m/s 765 mmHg 73%
    05:00 +11°C° 0 mm 3 m/s 765 mmHg 70%
    06:00 +12°C° 0 mm 3 m/s 765 mmHg 67%
    07:00 +13°C° 0 mm 3 m/s 765 mmHg 65%
    08:00 +16°C° 0 mm 3 m/s 765 mmHg 57%
    09:00 +18°C° 0 mm 2 m/s 765 mmHg 49%
    10:00 +20°C° 0 mm 2 m/s 765 mmHg 42%
    11:00 +21°C° 0 mm 2 m/s 765 mmHg 40%
    12:00 +23°C° 0 mm 2 m/s 764 mmHg 38%
    13:00 +23°C° 0 mm 2 m/s 764 mmHg 35%
    14:00 +22°C° 0 mm 3 m/s 764 mmHg 38%
    15:00 +21°C° 0 mm 3 m/s 764 mmHg 41%
    16:00 +20°C° 0 mm 3 m/s 763 mmHg 44%
    17:00 +18°C° 0 mm 2 m/s 763 mmHg 53%
    18:00 +16°C° 0 mm 2 m/s 763 mmHg 62%
    19:00 +14°C° 0 mm 1 m/s 763 mmHg 71%
    20:00 +13°C° 0 mm 1 m/s 763 mmHg 72%
    21:00 +13°C° 0 mm 1 m/s 764 mmHg 73%
    22:00 +12°C° 0 mm 1 m/s 764 mmHg 73%
    23:00 +12°C° 0 mm 1 m/s 763 mmHg 72%
    Arată mai mult